Temp
-3 -3 -2 -2 -2 -2 -2 -1 -1 -1 -1 -1 -1 -1 -0 0 0 0 0 0 0 0 1 1 2 2 2
-3 -3 -3 -3 -3 -2 -2 -2 -2 -2 -2 -2 -2 -2 -1 -1 -0 -0 -0 -1 -1 -1 -0 0 1 1 1
-4 -4 -3 -3 -3 -3 -3 -3 -3 -2 -2 -2 -2 -2 -2 -2 -1 -1 -1 -2 -1 -1 -1 -1 -0 0 1
-4 -4 -4 -4 -4 -4 -4 -3 -3 -2 -2 -2 -2 -2 -2 -2 -2 -2 -1 -2 -2 -1 -1 -1 -1 -0 -0
-5 -5 -4 -4 -4 -5 -5 -4 -3 -3 -3 -3 -3 -2 -2 -2 -2 -2 -2 -2 -2 -2 -2 -1 -1 -1 -1
-4 -4 -4 -5 -5 -5 -5 -5 -4 -4 -4 -4 -3 -3 -3 -3 -3 -3 -3 -3 -3 -2 -2 -2 -1 -1 -1
-5 -5 -5 -5 -5 -5 -5 -5 -5 -5 -5 -4 -4 -3 -3 -3 -3 -3 -3 -3 -3 -3 -3 -3 -2 -2 -2
-5 -5 -5 -5 -5 -5 -5 -5 -5 -5 -5 -5 -4 -4 -4 -3 -3 -3 -4 -4 -4 -4 -3 -3 -3 -3 -3
-6 -5 -5 -5 -5 -5 -5 -6 -5 -5 -5 -5 -4 -5 -5 -4 -4 -4 -4 -4 -5 -5 -5 -4 -4 -4 -4
-5 -5 -5 -5 -5 -5 -5 -5 -5 -5 -5 -5 -5 -5 -5 -5 -5 -5 -5 -5 -5 -6 -6 -6 -5 -5 -5
-6 -5 -5 -5 -5 -5 -5 -5 -5 -5 -5 -6 -5 -6 -6 -6 -6 -6 -6 -6 -6 -6 -6 -5 -6 -6 -6
-6 -6 -6 -5 -5 -5 -5 -5 -5 -5 -5 -6 -6 -6 -7 -7 -7 -6 -6 -7 -7 -7 -7 -7 -6 -6 -6
-6 -6 -6 -5 -5 -5 -5 -5 -6 -5 -5 -5 -6 -6 -7 -8 -7 -7 -7 -7 -7 -7 -7 -7 -7 -7 -7
-7 -6 -6 -6 -6 -6 -6 -5 -6 -6 -5 -6 -6 -7 -7 -7 -8 -8 -8 -8 -7 -7 -8 -8 -8 -8 -8
-7 -7 -7 -7 -7 -7 -6 -6 -7 -7 -6 -6 -6 -7 -8 -8 -9 -9 -9 -8 -8 -8 -8 -8 -8 -8 -8
-8 -8 -8 -8 -8 -8 -7 -7 -7 -7 -7 -6 -7 -8 -9 -8 -8 -9 -8 -9 -8 -8 -8 -9 -9 -8 -8
-9 -9 -8 -8 -8 -8 -8 -8 -8 -8 -8 -7 -8 -10 -9 -8 -8 -8 -9 -8 -8 -9 -8 -8 -9 -8 -8
Height
911 912 913 913 914 913 913 912 911 911 911 911 911 911 911 911 910 910 910 909 908 907 906 905 904 902 902
910 912 912 913 912 912 911 911 910 910 909 909 909 909 909 909 908 908 908 907 906 906 905 904 902 901 899
910 911 911 910 910 910 909 909 909 908 907 907 907 907 907 907 906 905 905 904 904 904 903 902 900 899 898
909 910 910 909 909 909 908 907 907 906 905 905 905 905 905 904 903 901 901 901 900 900 899 898 897 896 895
908 908 908 908 908 908 907 906 905 904 904 904 903 902 902 901 900 899 898 897 897 895 895 894 894 892 890
906 906 906 907 906 906 905 905 905 902 902 902 901 900 899 897 897 896 895 895 894 892 891 890 890 889 887
902 903 903 903 903 904 904 903 901 901 901 899 898 897 896 895 894 892 891 891 890 889 887 886 885 884 883
899 899 899 900 900 899 899 899 898 897 897 896 895 893 891 890 889 888 887 886 885 885 883 881 880 878 877
894 895 894 894 895 895 894 894 893 892 892 891 891 889 888 886 884 884 883 882 881 880 878 876 875 873 870
889 888 889 889 889 890 889 889 889 888 888 888 887 887 884 881 881 880 878 876 875 873 872 871 869 867 864
883 883 883 883 883 883 883 883 883 882 883 882 882 882 882 879 876 874 873 870 869 867 865 863 862 861 859
877 877 877 877 877 877 876 875 875 876 876 876 876 876 875 874 872 869 867 865 863 861 859 857 855 853 852
871 871 871 871 871 870 869 868 868 868 869 869 869 870 870 869 867 866 863 858 858 855 853 851 848 846 844
867 867 865 865 864 864 864 863 863 863 864 864 864 864 863 863 862 860 857 857 850 849 847 844 841 839 837
861 860 859 859 858 858 858 858 857 857 857 858 858 858 857 856 854 851 849 847 844 841 840 836 834 832 829
856 854 853 852 851 851 850 850 849 849 849 850 850 851 850 847 846 843 842 840 837 835 834 830 824 822 822
850 849 848 846 845 844 843 843 842 842 841 843 844 845 844 841 838 837 835 833 832 828 826 824 820 813 814
Wind_Speed
4 5 2 3 5 7 7 7 6 5 4 5 5 5 5 4 3 3 3 4 6 8 9 9 9 9 9
3 3 2 4 6 6 6 5 4 4 5 5 5 4 3 3 3 3 5 5 7 9 10 10 9 9 10
1 1 3 5 6 7 5 5 6 7 7 6 5 4 4 5 5 5 6 7 9 11 12 11 11 11 11
1 2 3 4 6 5 5 7 10 9 7 6 5 5 6 7 8 9 10 11 11 12 13 13 13 12 13
3 3 4 3 3 4 7 9 8 7 6 2 6 8 9 10 10 10 10 11 12 12 13 13 13 12 11
6 7 8 7 7 6 5 5 5 5 4 11 10 11 9 8 8 8 11 12 14 14 13 14 14 14 15
13 13 11 9 7 8 10 9 10 10 9 10 11 10 12 14 13 13 13 13 15 16 16 16 16 17 18
16 19 19 17 16 15 13 12 13 15 11 9 8 12 14 14 14 15 13 12 12 12 12 14 16 17 18
16 17 17 17 16 17 18 13 12 12 8 8 11 11 11 14 12 12 9 8 11 18 19 18 19 20 21
18 17 17 18 19 18 14 11 11 7 10 9 6 7 7 11 9 13 16 19 19 18 18 19 19 19 19
20 19 18 19 20 21 23 19 18 18 16 11 12 10 8 11 13 17 18 19 18 20 21 20 18 17 18
18 17 18 19 21 21 16 20 23 22 20 15 13 14 13 13 13 17 19 20 18 17 18 18 18 20 19
15 17 19 23 22 21 22 19 18 18 19 20 20 20 19 16 17 17 21 20 20 19 20 18 19 19 20
18 17 15 14 15 17 17 18 17 18 19 21 21 20 21 22 19 22 26 15 26 22 21 21 20 19 19
19 18 20 19 20 20 24 21 17 17 22 24 22 19 20 22 21 23 24 25 25 25 20 21 21 21 20
18 19 18 19 19 20 21 21 21 20 21 25 21 16 13 19 24 27 23 23 23 20 20 22 27 25 20
20 21 21 20 19 20 21 21 21 21 20 22 20 12 13 9 18 16 23 24 20 24 23 22 25 35 25
Wind_Direction
154 186 233 293 313 324 327 326 328 330 341 341 337 326 320 333 325 327 336 352 354 346 337 326 322 317 314
159 200 255 309 321 327 327 324 333 331 331 326 325 327 339 331 337 323 315 324 333 336 336 325 320 316 316
137 267 300 322 323 323 322 316 323 322 319 313 311 309 302 298 298 296 272 300 312 319 319 317 314 304 303
252 278 292 310 316 321 325 322 324 318 309 295 298 273 285 289 287 285 286 294 305 306 308 307 308 305 303
253 265 275 286 286 305 304 313 321 314 313 284 300 299 292 287 291 291 296 301 304 307 303 300 300 300 302
265 266 270 270 280 282 286 310 314 294 287 299 306 306 306 304 294 293 298 299 298 299 297 298 294 290 293
267 263 270 268 272 271 275 273 267 279 290 287 298 290 302 303 295 293 294 294 294 295 298 296 292 290 290
261 269 272 276 273 272 272 271 272 275 270 265 279 289 300 299 300 299 294 293 293 294 297 297 295 294 291
265 268 271 269 267 270 261 250 259 267 246 264 281 288 289 294 300 302 299 283 294 297 295 293 290 288 285
278 271 265 261 260 260 267 248 249 268 263 240 252 279 293 285 272 295 299 299 301 296 293 292 292 291 286
269 271 273 271 267 262 259 250 252 251 261 247 263 263 251 278 288 296 296 299 298 299 301 300 295 287 285
261 258 264 270 273 274 278 263 257 252 264 255 244 251 265 282 283 295 295 295 295 295 296 297 300 295 283
262 264 264 272 279 276 277 268 259 254 251 253 256 266 265 265 272 281 292 295 288 288 294 293 293 291 289
278 281 283 274 269 263 259 263 258 257 253 255 261 266 270 271 270 271 280 275 290 288 289 290 287 282 280
282 272 269 269 264 265 262 261 249 249 256 258 263 267 274 274 268 268 274 276 279 286 290 286 283 282 280
284 280 275 271 269 268 258 252 250 251 251 259 268 279 284 277 261 262 268 269 282 284 280 281 285 289 283
279 276 275 273 270 261 254 247 248 244 246 254 264 255 265 263 276 252 255 269 276 278 277 271 273 285 289